Wind_Speed
5 6 7 5 4 5 3 2 2 3 2 1 3 4 4 4 3 3 3 2 4 8 11 13 11 10 10 10 9 7 6 6 5 4 3 2 3 5 6 6 8 8 8 8 9 9 8 10 11
5 7 5 3 5 4 5 3 3 4 3 5 8 12 2 2 3 1 2 3 5 5 11 12 11 10 10 9 9 8 6 6 5 4 3 3 4 5 6 6 7 8 9 8 9 9 9 9 11
5 6 3 4 3 0 3 3 5 2 2 3 3 2 4 2 4 0 2 1 6 6 9 11 11 10 10 9 10 9 8 6 4 4 3 4 4 5 6 6 6 7 9 10 10 10 10 10 10
5 3 4 4 2 3 2 5 5 2 3 4 1 1 2 4 1 0 1 3 4 5 8 7 10 10 10 9 10 9 8 7 5 4 4 4 4 4 5 5 5 4 6 9 11 11 11 11 11
4 4 4 3 4 5 5 5 5 5 4 7 3 1 3 4 6 3 2 1 2 5 7 7 6 5 7 10 11 10 9 7 6 5 5 5 4 4 3 4 4 4 5 7 9 11 11 11 11
3 3 4 1 4 5 6 12 4 6 5 5 1 1 4 5 9 7 5 0 2 1 4 5 3 4 7 8 11 11 10 9 8 6 5 5 4 3 3 3 3 3 4 6 8 12 12 12 12
4 3 3 2 3 4 3 11 3 6 7 4 7 1 3 5 8 8 5 3 4 5 4 1 3 5 6 8 10 13 12 11 10 8 7 7 6 4 3 2 2 3 3 5 7 9 11 12 13
2 4 2 3 3 5 2 9 2 8 7 13 7 3 4 13 10 8 8 7 9 9 9 10 10 9 8 8 9 12 14 14 13 11 10 9 8 7 5 3 2 2 3 4 6 8 11 12 14
2 4 2 4 4 4 6 7 3 10 7 18 5 10 12 16 9 13 13 15 15 16 16 15 15 14 11 9 9 8 10 15 16 14 13 11 10 9 7 5 3 3 3 4 5 7 9 11 13
3 3 6 4 2 3 8 5 12 7 19 7 19 16 18 13 7 16 16 18 18 18 17 18 19 17 15 13 9 8 8 9 16 17 16 13 12 11 11 8 6 5 5 5 5 6 7 9 12
2 4 3 2 4 5 6 8 3 8 8 19 20 25 18 13 9 18 20 17 20 24 22 18 20 20 20 18 14 10 8 9 9 16 17 16 15 14 14 12 9 8 6 6 6 7 7 9 11
3 6 6 5 5 10 5 10 7 8 15 23 12 9 8 5 2 10 15 15 20 21 27 30 30 28 26 24 21 17 14 11 11 7 14 19 18 17 16 15 12 10 8 7 7 8 9 10 11
2 4 7 12 22 20 13 5 5 13 20 21 21 22 24 21 18 7 5 10 17 23 25 25 33 34 34 32 28 25 21 18 14 12 12 13 15 18 19 18 17 14 12 11 9 9 9 10 11
5 10 15 12 15 2 3 2 1 19 9 20 23 29 28 29 28 21 17 17 8 5 11 18 25 29 34 37 35 32 29 28 24 20 16 14 13 13 18 19 19 18 16 14 13 12 11 11 12
6 6 7 3 10 4 1 3 7 25 15 27 31 33 32 31 28 30 28 28 24 21 15 5 10 17 23 31 37 37 35 33 30 27 24 22 18 15 14 16 19 19 18 18 17 16 15 14 14
4 4 4 3 12 7 4 5 18 23 21 27 29 30 30 30 29 27 26 26 26 24 25 22 14 5 8 20 28 31 33 34 33 33 30 26 25 22 19 17 17 17 19 21 21 20 18 17 16
6 1 1 9 5 4 6 4 19 23 33 27 26 27 28 29 29 28 26 26 26 25 24 24 24 22 11 9 5 16 24 27 28 31 33 32 30 29 27 25 21 18 19 22 23 23 22 20 19
3 3 2 4 6 7 8 5 7 18 29 24 23 24 26 26 26 25 25 26 26 25 24 24 24 23 20 17 10 8 5 11 21 25 26 33 34 34 33 31 28 24 23 23 25 26 25 24 22
2 2 4 5 1 4 7 6 4 11 21 20 19 20 22 22 21 22 24 25 26 27 28 28 26 26 24 23 18 15 15 9 7 8 17 24 31 37 38 36 33 31 30 29 25 25 28 28 26
1 3 5 4 2 3 6 5 4 6 8 13 14 15 15 16 18 20 22 24 27 28 29 29 28 27 25 24 24 21 15 11 9 7 6 10 17 28 34 38 39 38 36 33 31 29 29 30 30
3 4 2 5 4 5 8 3 3 1 8 8 8 8 8 10 13 16 19 22 24 27 29 30 31 27 24 24 25 22 20 20 18 15 12 11 12 12 21 31 36 41 43 40 38 33 33 32 33
3 2 2 4 5 2 3 4 6 4 2 3 4 3 2 3 6 9 13 16 20 24 27 29 30 31 28 23 23 24 25 26 25 24 23 22 20 17 16 16 25 35 44 46 44 39 37 35 35
6 4 5 2 3 3 1 3 3 7 3 1 4 7 5 4 4 6 9 12 16 21 25 28 29 32 31 28 23 22 26 26 26 26 25 23 23 23 22 22 21 22 35 43 47 48 44 40 39
6 3 5 4 3 1 4 4 5 5 6 2 3 13 12 11 9 5 7 10 14 19 22 25 27 28 30 28 22 23 27 29 25 22 19 21 24 24 25 23 24 24 24 28 39 45 50 47 44
10 7 4 4 3 5 2 1 3 6 6 6 2 11 9 18 13 9 9 11 14 18 20 20 22 21 22 24 25 27 31 30 22 19 23 26 27 28 27 26 25 24 25 27 29 36 44 51 50
3 3 4 4 3 5 5 5 2 6 10 5 8 9 14 19 13 10 11 13 16 19 20 20 19 23 26 28 30 32 31 28 26 27 27 30 27 27 26 25 26 26 27 26 29 32 38 44 52
0 2 2 0 1 1 4 4 2 4 5 3 10 12 18 18 11 9 11 15 21 23 23 23 19 23 28 29 28 28 31 34 34 33 30 28 29 26 22 24 29 27 25 27 27 32 36 39 45
2 3 1 3 3 5 5 5 5 11 7 5 10 19 19 19 13 11 16 21 25 29 31 30 30 35 35 36 34 27 30 32 36 35 32 30 29 22 22 26 28 29 28 25 24 29 34 37 42
4 1 4 3 3 4 4 6 5 10 7 4 10 13 12 17 17 18 23 29 34 34 35 36 35 33 34 34 32 31 35 37 35 36 35 36 31 27 29 26 28 30 27 25 25 26 30 37 40
2 2 3 4 3 1 3 8 3 10 13 3 14 21 21 19 26 30 32 36 36 37 32 32 33 32 34 36 32 35 34 32 31 34 32 31 29 30 27 32 32 30 29 28 25 26 26 33 39
Wind_Direction
344 346 329 338 45 53 342 290 260 298 305 143 131 127 166 145 154 219 321 206 188 177 183 187 190 188 192 190 182 178 175 181 186 184 197 197 161 159 156 133 129 139 139 127 118 114 111 114 119
347 348 346 18 74 39 294 271 259 226 261 133 129 120 140 232 192 204 15 204 183 176 191 192 195 194 194 193 185 183 180 181 188 199 198 179 156 155 157 156 147 150 151 148 137 132 127 131 130
341 9 24 77 95 94 266 303 286 290 263 285 133 254 172 235 210 189 34 146 191 182 190 197 199 199 196 193 184 182 182 185 194 198 187 166 156 155 156 166 164 155 155 154 154 152 146 151 146
356 37 56 75 323 269 234 308 279 299 313 273 207 158 245 223 101 282 95 144 174 187 192 212 203 204 207 203 197 194 191 191 199 199 189 172 158 157 166 175 187 175 173 171 162 163 161 165 162
14 62 51 53 300 289 310 343 5 360 310 317 219 257 251 255 227 242 286 138 149 184 189 185 194 228 237 226 216 212 208 204 205 214 195 180 166 154 163 183 192 193 193 190 176 173 172 177 179
52 61 52 355 276 292 304 5 19 8 338 322 288 205 259 258 241 247 236 209 181 194 178 185 198 248 264 259 239 230 222 220 215 220 218 200 187 179 178 191 200 209 208 203 193 189 179 189 193
98 77 177 240 264 307 285 357 37 336 317 344 326 272 284 313 243 240 232 233 225 218 232 238 266 270 298 284 263 251 238 231 231 227 225 219 212 210 202 199 205 218 221 216 210 201 176 189 197
87 90 125 249 234 269 292 348 329 3 301 330 354 338 330 330 260 221 218 229 235 238 240 254 253 258 280 307 294 263 249 240 238 237 234 229 224 225 220 222 220 218 224 221 219 212 210 215 204
110 68 212 246 172 265 340 2 325 331 301 320 311 335 355 346 225 214 219 218 225 237 244 251 253 259 270 288 284 284 264 253 246 243 240 239 235 235 235 236 238 242 240 236 232 227 224 222 214
92 116 225 221 226 289 320 310 325 337 324 328 340 349 350 358 252 222 227 233 234 241 246 251 251 257 262 269 287 288 287 294 261 251 249 247 245 242 235 240 245 242 240 242 242 241 236 234 228
169 202 225 283 286 327 322 311 359 319 322 325 329 331 332 338 246 222 222 237 245 247 247 259 259 254 257 265 273 279 291 288 299 260 256 255 254 251 245 245 251 253 250 246 248 245 240 238 240
316 266 268 300 307 319 299 304 310 284 293 335 343 9 17 30 264 247 249 259 255 258 255 253 248 252 255 256 263 271 271 281 277 280 263 264 265 266 258 253 254 254 257 254 248 248 251 251 250
210 307 315 299 300 302 296 281 263 295 44 74 80 71 66 65 61 51 298 277 267 264 266 262 255 253 251 251 257 264 269 269 265 261 267 269 270 267 265 259 257 258 260 264 262 258 260 257 254
315 300 301 310 323 5 331 329 242 29 29 62 67 69 67 65 62 62 57 51 26 355 272 265 262 261 262 256 252 252 253 253 252 254 263 269 275 280 268 263 261 259 257 261 262 259 258 257 257
316 336 334 8 346 43 337 11 72 2 54 80 78 76 71 67 62 59 57 56 56 51 42 328 260 251 250 255 256 254 254 259 257 257 258 259 276 283 280 274 270 265 261 260 261 261 261 259 259
31 45 20 313 4 8 39 268 351 360 95 80 77 74 71 63 60 58 55 53 50 51 53 55 51 39 256 252 256 259 261 262 259 259 259 257 266 274 276 281 288 274 265 262 260 260 261 260 261
6 276 329 324 61 355 43 356 1 73 91 80 73 69 67 65 60 55 50 47 45 44 43 44 44 48 55 62 25 262 263 265 263 262 258 257 259 263 267 278 287 276 270 269 265 262 262 262 261
277 331 303 258 321 5 80 67 29 71 88 84 77 71 66 61 55 50 47 45 41 37 35 33 31 32 37 42 38 25 340 286 269 264 260 253 253 256 258 265 277 270 268 270 268 266 264 263 262
230 234 251 254 257 72 99 97 53 66 84 82 76 71 68 62 54 46 39 34 32 28 24 21 15 14 11 12 15 18 27 11 357 296 263 254 255 255 254 255 259 273 268 273 278 273 267 263 260
261 275 279 295 327 77 130 94 73 46 79 89 85 76 69 60 47 38 31 27 24 20 19 17 12 7 4 1 5 3 357 355 351 342 308 267 260 252 253 254 254 257 263 272 271 271 270 265 258
287 232 240 230 330 69 126 154 122 36 91 94 91 88 79 57 42 33 26 22 17 16 16 13 11 5 357 353 348 348 345 343 332 323 310 310 297 292 266 256 256 252 253 269 268 270 272 269 260
288 199 293 301 35 239 150 284 215 183 97 62 74 73 82 65 39 29 23 21 15 10 7 5 5 3 358 347 348 350 349 342 338 334 329 317 303 296 293 293 265 253 254 255 261 268 269 268 261
247 317 283 285 211 348 259 142 270 151 111 338 359 345 347 309 311 6 10 8 3 360 357 354 354 352 350 346 331 332 334 330 325 324 326 318 313 308 291 292 294 279 258 256 255 258 264 265 261
298 347 37 54 97 332 237 156 204 180 171 166 20 3 2 338 308 302 331 338 342 347 346 344 343 343 340 336 325 320 327 330 321 320 319 324 317 316 314 312 297 291 289 276 260 255 256 261 263
32 36 339 347 359 232 212 269 274 165 164 149 316 357 5 8 329 270 289 314 327 332 333 329 331 329 327 326 320 321 324 327 323 320 317 317 317 317 319 319 312 299 292 288 279 263 255 254 257
19 121 149 277 271 289 303 245 262 197 162 130 358 346 349 341 324 269 280 303 317 323 327 322 317 320 320 321 319 317 318 316 313 310 312 310 310 307 309 314 312 312 295 289 286 275 263 257 253
45 39 182 151 30 21 265 282 347 172 195 269 323 338 336 337 327 271 292 311 320 323 327 322 303 308 314 315 317 314 310 311 313 311 306 306 310 309 298 310 308 306 303 286 289 275 270 262 259
106 160 44 13 294 286 286 275 244 202 214 277 321 341 356 1 346 293 302 313 319 321 321 317 312 308 307 306 308 302 298 302 307 309 308 309 317 309 302 302 306 310 309 294 292 281 267 265 261
351 356 65 127 147 216 296 261 227 176 178 264 320 333 341 341 337 318 312 312 314 317 316 308 303 297 293 300 303 298 299 301 303 303 307 303 305 307 309 301 301 307 300 307 288 293 277 268 267
254 175 129 134 228 174 148 270 200 161 177 238 324 336 328 328 323 316 310 310 308 314 308 301 305 295 293 302 292 297 301 303 300 303 303 298 301 296 299 301 298 295 300 295 302 284 282 272 266
Height
1536 1535 1534 1533 1543 1546 1551 1543 1534 1532 1531 1527 1527 1527 1529 1528 1530 1544 1529 1529 1529 1530 1532 1534 1536 1538 1539 1540 1541 1542 1542 1543 1543 1543 1542 1542 1542 1541 1542 1541 1541 1542 1542 1542 1542 1541 1541 1541 1542
1537 1536 1535 1534 1552 1565 1557 1537 1535 1530 1528 1528 1528 1528 1529 1529 1528 1528 1529 1528 1529 1530 1532 1534 1536 1537 1539 1540 1541 1542 1542 1543 1543 1543 1542 1542 1542 1542 1542 1542 1542 1542 1542 1543 1543 1543 1542 1542 1543
1537 1537 1537 1541 1556 1560 1556 1537 1534 1529 1529 1529 1529 1529 1528 1528 1528 1528 1528 1528 1529 1530 1531 1533 1535 1537 1539 1540 1541 1542 1542 1543 1543 1543 1543 1543 1542 1542 1542 1542 1542 1543 1543 1543 1543 1543 1543 1544 1544
1538 1539 1541 1550 1552 1545 1542 1537 1531 1530 1529 1529 1529 1529 1529 1528 1528 1529 1529 1529 1529 1531 1533 1534 1536 1537 1539 1540 1541 1542 1542 1543 1543 1544 1544 1544 1543 1543 1543 1543 1543 1543 1544 1544 1544 1544 1544 1544 1545
1538 1539 1551 1555 1552 1544 1538 1536 1534 1533 1532 1529 1529 1529 1528 1527 1528 1529 1529 1529 1530 1531 1532 1534 1537 1538 1539 1540 1540 1541 1543 1543 1544 1544 1544 1544 1544 1544 1544 1544 1544 1544 1544 1545 1545 1545 1545 1545 1546
1540 1542 1559 1564 1553 1544 1539 1536 1533 1534 1532 1530 1529 1529 1529 1528 1527 1528 1529 1530 1531 1533 1533 1534 1535 1537 1538 1539 1540 1541 1542 1543 1543 1544 1545 1545 1544 1544 1544 1544 1544 1544 1544 1544 1545 1545 1546 1546 1546
1541 1548 1557 1554 1552 1547 1538 1536 1536 1536 1534 1532 1530 1529 1529 1528 1528 1528 1530 1531 1531 1532 1533 1534 1536 1537 1538 1539 1540 1541 1542 1542 1543 1544 1544 1544 1545 1545 1545 1545 1544 1544 1543 1544 1544 1545 1546 1546 1546
1542 1546 1553 1552 1554 1549 1538 1538 1538 1537 1534 1532 1532 1531 1530 1529 1528 1528 1530 1530 1531 1532 1532 1533 1535 1536 1538 1539 1540 1540 1540 1541 1542 1542 1543 1544 1544 1545 1545 1545 1545 1544 1544 1544 1544 1544 1544 1545 1545
1543 1555 1561 1551 1549 1542 1538 1538 1537 1536 1534 1532 1531 1531 1530 1527 1526 1527 1527 1529 1530 1531 1532 1533 1534 1535 1536 1537 1538 1539 1539 1540 1541 1542 1542 1543 1543 1544 1545 1545 1545 1544 1544 1544 1544 1544 1544 1544 1544
1545 1557 1550 1543 1541 1540 1539 1539 1538 1536 1532 1530 1529 1531 1530 1526 1525 1526 1526 1526 1528 1529 1530 1531 1533 1534 1535 1536 1536 1537 1538 1539 1540 1541 1541 1542 1542 1543 1544 1544 1544 1544 1544 1543 1543 1544 1544 1543 1543
1545 1551 1543 1541 1540 1540 1539 1538 1538 1536 1534 1530 1529 1528 1527 1526 1528 1528 1529 1532 1532 1532 1530 1529 1531 1532 1533 1534 1535 1535 1536 1536 1537 1539 1540 1541 1541 1542 1542 1543 1543 1544 1543 1543 1543 1543 1543 1543 1542
1548 1542 1543 1541 1540 1540 1539 1538 1539 1536 1533 1532 1529 1527 1525 1524 1525 1528 1529 1530 1530 1531 1531 1532 1533 1532 1532 1532 1532 1533 1533 1533 1534 1535 1536 1538 1539 1540 1541 1541 1542 1542 1542 1542 1542 1542 1542 1542 1541
1546 1543 1542 1541 1538 1537 1536 1538 1539 1535 1538 1533 1530 1528 1527 1527 1527 1527 1528 1528 1527 1527 1527 1527 1529 1530 1530 1531 1531 1530 1531 1531 1532 1532 1533 1534 1535 1536 1537 1538 1539 1540 1541 1541 1541 1541 1541 1540 1540
1545 1544 1541 1538 1536 1536 1536 1536 1536 1542 1539 1535 1533 1533 1532 1530 1531 1529 1527 1526 1524 1524 1522 1523 1523 1524 1526 1528 1529 1530 1530 1530 1531 1531 1531 1532 1533 1534 1535 1536 1536 1537 1538 1539 1540 1539 1539 1539 1539
1544 1545 1540 1537 1537 1537 1537 1539 1542 1545 1539 1538 1538 1537 1536 1535 1533 1531 1532 1529 1527 1524 1521 1518 1518 1519 1519 1521 1523 1525 1526 1528 1529 1529 1531 1533 1532 1532 1533 1533 1533 1534 1535 1536 1537 1537 1537 1537 1537
1547 1548 1554 1540 1538 1538 1537 1551 1546 1541 1540 1544 1544 1541 1539 1538 1537 1536 1535 1533 1530 1527 1524 1522 1520 1517 1516 1517 1518 1519 1521 1523 1525 1527 1528 1529 1530 1531 1531 1531 1530 1531 1532 1532 1533 1534 1534 1534 1535
1556 1559 1554 1550 1543 1542 1542 1556 1557 1549 1543 1548 1548 1546 1544 1542 1540 1539 1537 1534 1532 1530 1528 1525 1522 1520 1519 1518 1517 1516 1515 1515 1518 1521 1523 1525 1526 1527 1527 1527 1528 1528 1528 1528 1528 1529 1530 1531 1531
1559 1559 1555 1555 1546 1544 1556 1563 1560 1556 1549 1551 1551 1549 1547 1545 1543 1542 1540 1537 1534 1532 1529 1527 1524 1523 1522 1520 1519 1517 1515 1513 1512 1513 1514 1517 1519 1520 1522 1523 1524 1525 1524 1524 1524 1524 1525 1526 1527
1550 1554 1558 1553 1547 1549 1560 1563 1561 1559 1555 1553 1552 1551 1549 1548 1547 1544 1541 1538 1535 1533 1529 1527 1525 1523 1521 1519 1518 1516 1514 1513 1512 1510 1509 1510 1511 1513 1514 1515 1518 1519 1519 1520 1520 1520 1521 1521 1522
1550 1554 1557 1551 1547 1548 1561 1563 1561 1559 1557 1555 1554 1552 1551 1549 1547 1545 1542 1539 1536 1533 1531 1528 1526 1523 1521 1518 1516 1515 1514 1512 1511 1509 1507 1505 1504 1504 1504 1507 1509 1512 1513 1513 1514 1515 1515 1516 1517
1552 1552 1553 1555 1551 1550 1558 1564 1563 1559 1557 1556 1555 1553 1551 1549 1547 1544 1542 1539 1536 1533 1530 1528 1526 1524 1521 1519 1517 1514 1511 1509 1506 1505 1503 1502 1500 1499 1498 1498 1500 1502 1505 1505 1506 1508 1509 1509 1511
1555 1546 1548 1550 1555 1561 1549 1569 1563 1559 1558 1556 1554 1553 1551 1549 1546 1544 1542 1539 1536 1533 1531 1529 1526 1523 1521 1518 1515 1512 1509 1506 1503 1501 1498 1497 1496 1494 1493 1493 1491 1492 1495 1496 1499 1500 1501 1502 1503
1552 1546 1548 1547 1553 1554 1553 1563 1554 1558 1557 1555 1554 1551 1550 1548 1546 1544 1541 1539 1536 1533 1530 1527 1525 1522 1519 1516 1512 1510 1507 1504 1500 1498 1495 1492 1490 1489 1487 1486 1485 1484 1484 1485 1488 1490 1492 1494 1494
1549 1548 1552 1556 1562 1568 1552 1553 1558 1557 1554 1554 1553 1551 1548 1546 1544 1542 1540 1537 1535 1532 1528 1524 1521 1519 1516 1512 1509 1505 1502 1498 1495 1493 1490 1488 1485 1484 1481 1479 1478 1477 1475 1474 1476 1478 1481 1484 1486
1551 1562 1571 1563 1568 1561 1549 1553 1549 1550 1550 1551 1551 1549 1547 1544 1541 1539 1536 1534 1532 1529 1526 1522 1518 1515 1512 1509 1505 1501 1498 1494 1491 1489 1485 1482 1480 1478 1475 1473 1470 1469 1468 1466 1466 1466 1468 1471 1474
1560 1565 1577 1568 1573 1569 1554 1552 1548 1547 1548 1549 1549 1547 1544 1541 1537 1535 1534 1531 1529 1525 1522 1518 1514 1510 1507 1503 1499 1495 1492 1489 1486 1483 1480 1477 1474 1471 1468 1466 1464 1462 1461 1459 1457 1457 1456 1459 1461
1561 1569 1566 1571 1577 1581 1561 1549 1546 1547 1548 1547 1546 1544 1540 1536 1533 1532 1531 1529 1526 1521 1517 1513 1509 1505 1501 1497 1493 1489 1485 1481 1478 1476 1473 1470 1466 1462 1460 1459 1457 1455 1453 1450 1448 1447 1447 1448 1450
1559 1563 1571 1581 1573 1573 1563 1558 1545 1547 1547 1546 1543 1539 1537 1534 1532 1531 1529 1525 1521 1517 1512 1508 1504 1499 1494 1490 1486 1482 1478 1474 1471 1466 1462 1458 1455 1455 1453 1450 1448 1446 1444 1441 1440 1438 1438 1438 1439
1569 1568 1572 1575 1581 1579 1582 1556 1533 1537 1541 1541 1540 1537 1534 1532 1529 1527 1524 1520 1516 1512 1507 1502 1497 1492 1488 1484 1479 1474 1469 1465 1461 1455 1449 1446 1445 1444 1443 1441 1439 1438 1436 1434 1431 1430 1429 1429 1430
1565 1565 1571 1585 1576 1590 1604 1567 1529 1530 1534 1537 1535 1532 1530 1528 1525 1523 1519 1514 1509 1504 1498 1494 1489 1485 1480 1475 1470 1465 1460 1456 1451 1447 1443 1440 1438 1436 1435 1433 1430 1429 1428 1427 1425 1422 1422 1422 1421